www.pogodaiklimat.ru

Погода и климат >> Архив погоды >> Таджикистан >> Ганжина


ПОГОДА в Ганжине

  • Прогноз погоды в Ганжине
  • Монитор погоды в Ганжине

АРХИВ ПОГОДЫ в Ганжине

Время (UTC), дата Ветер
(напр.,м/с)
 
Видим.   Явления Облачность Т
(С)
Тd
(С)
f
(%)
Тe
(С)
Тes
(С)
Комфортность P
(гПа)
Po
(гПа)
Тmin
(С)
Tmax
(С)
R
(мм)
R24
(мм)
S
(см)
00 11.06 С 1 50 км 1/0
[Ac trans]
+13.7 +7.1 64 +14 +14 1014.6 927.7
03 11.06 СВ 1 50 км 9/9 1000 м
[Sc]
+18.8 +7.8 49 +20 +21 1013.5 928.1 +13.6
06 11.06 ЮВ 2 50 км 3/3 1000 м
[Sc]
+22.4 +8.0 40 +24 +37 комфорт 1012.6 928.3
09 11.06 ЮВ 2 50 км 8/8 1000 м
[Cb cap]
+23.8 +8.8 38 +24 +28 комфорт 1012.1 928.2
12 11.06 ЮВ 1 50 км 4/4 1000 м
[Sc]
+25.0 +5.6 29 +25 +29 комфорт 1011.3 927.8
15 11.06 ЮВ 1 50 км ясно +22.1 +6.7 37 +23 +23 комфорт 1014.0 929.5 +26.0
18 11.06 ЮВ 1 н/о ясно +15.7 +7.7 59 +16 +16 1015.3 928.9
21 11.06 ЮВ 1 н/о ясно +14.7 +8.1 65 +15 +15 1016.6 929.8
00 12.06 ЮВ 1 50 км ясно +12.9 +7.4 69 +13 +13 1017.3 929.9
03 12.06 ЮВ 1 50 км ясно +19.5 +6.2 42 +21 +29 комфорт 1014.5 929.2 +12.8
06 12.06 ЮВ 1 50 км 1/1 1000 м
[Cu hum]
+24.6 +8.6 36 +25 +45 комфорт 1013.3 929.5
09 12.06 ЮВ 1 50 км 1/1 1000 м
[Cu hum]
+26.6 +9.2 33 +27 +46 жарко 1011.4 928.3
12 12.06 ЮВ 1 50 км 1/1 1000 м
[Cu hum]
+30.2 +9.9 28 +30 +36 жарко 1008.9 926.9
15 12.06 ЮВ 1 50 км ясно +25.4 +8.9 35 +26 +26 жарко 1011.0 927.6 +31.0
18 12.06 В 1 н/о ясно +16.9 +7.6 54 +18 +18 1014.0 928.0
21 12.06 СВ 1 н/о ясно +14.9 +7.7 62 +16 +16 1014.1 927.5
00 13.06 СВ 1 50 км ясно +13.2 +6.8 65 +14 +14 1015.4 928.2
03 13.06 штиль 0 50 км ясно +20.5 +6.7 41 +21 +30 комфорт 1013.8 928.8 +13.1
06 13.06 ЮВ 1 50 км ясно +25.5 +8.2 33 +26 +48 жарко 1011.4 928.0
09 13.06 ЮВ 1 50 км ясно +29.9 +10.3 30 +30 +51 опасность
солнечного
удара
1009.3 927.2
12 13.06 ЮВ 1 50 км ясно +31.8 +10.2 26 +31 +38 жарко 1007.3 925.9
15 13.06 ЮВ 1 50 км ясно +26.0 +8.5 33 +26 +26 жарко 1008.2 925.2 +32.5
18 13.06 В 1 н/о ясно +16.7 +8.2 57 +18 +18 1011.8 926.0
21 13.06 В 1 н/о 4/4 1000 м
[]
+14.6 +7.6 63 +15 +15 1013.2 926.6
00 14.06 В 1 50 км ясно +13.8 +8.5 70 +14 +14 1013.9 927.0
03 14.06 штиль 0 50 км 3/0
[Ci fib]
+19.7 +8.4 48 +20 +28 1011.2 926.2 +13.7
06 14.06 ЮВ 1 50 км 8/0
[Ci]
+26.4 +9.7 35 +27 +45 жарко 1009.7 926.7
09 14.06 ЮВ 2 50 км 8/5 1000 м
[Sc Ci fib]
+31.0 +7.1 22 +30 +38 жарко 1005.6 924.1
12 14.06 ЮВ 1 50 км 6/0
[Ac lent]
+13.6 +5.8 59 +14 +18 1002.9 916.9
15 14.06 ЮВ 1 50 км 4/0
[Ac cast]
+27.2 +8.2 30 +27 +27 жарко 1003.8 921.5 +33.0
18 14.06 Ю 1 н/о ясно +18.9 +6.5 44 +20 +20 1006.8 922.0
21 14.06 ЮЗ 1 н/о ясно +17.5 +6.7 49 +19 +19 1007.5 922.2
00 15.06 ЮЗ 1 50 км ясно +15.9 +6.5 54 +17 +17 1009.4 923.5
03 15.06 штиль 0 50 км ясно +25.4 +5.5 28 +25 +34 комфорт 1006.2 923.2 +15.8
06 15.06 ЮВ 1 50 км 3/1 1000 м
[Sc Ci fib]
+29.6 +3.4 19 +28 +46 жарко 1006.6 924.7
09 15.06 В 2 50 км 8/6 1000 м
[Cu med, cong Ci fib]
+31.4 +5.0 19 +29 +36 жарко 1004.2 922.9
12 15.06 СЗ 2 50 км 5/5 1000 м
[Cu med, cong]
+32.1 +5.1 18 +30 +33 жарко 1002.6 921.6
15 15.06 С 1 50 км ясно +30.5 +9.0 26 +30 +30 жарко 1002.0 920.7 +33.2
18 15.06 СВ 1 н/о ясно +19.2 +4.5 38 +21 +21 комфорт 1006.2 921.5
21 15.06 СВ 1 н/о ясно +17.7 +5.6 45 +19 +19 1006.3 921.2
00 16.06 В 1 50 км ясно +15.6 +5.5 51 +16 +16 1006.7 921.0
03 16.06 штиль 0 50 км ясно +25.6 +4.6 26 +25 +33 комфорт 1003.4 920.7 +15.5
06 16.06 ЮВ 1 50 км 1/1 1000 м
[Cu hum]
+30.1 +4.0 19 +28 +48 жарко 1002.0 920.6
09 16.06 ЮВ 2 50 км 3/1 1000 м
[Cu hum]
+33.4 +5.1 17 +31 +46 жарко 1000.1 919.7
12 16.06 ЮВ 1 50 км 3/3 1000 м
[Cu hum]
+34.0 +4.6 16 +31 +36 жарко 999.2 919.0
15 16.06 ЮЗ 1 50 км ясно +29.4 +5.0 21 +28 +28 жарко 1002.0 920.4 +35.0
18 16.06 ЮЗ 1 н/о ясно +21.7 +6.1 36 +22 +22 комфорт 1006.5 922.5
21 16.06 ЮЗ 1 н/о ясно +19.0 +4.5 38 +20 +20 1007.9 923.0
00 17.06 ЮЗ 1 50 км ясно +17.6 +5.5 45 +19 +19 1007.9 922.6
03 17.06 штиль 0 50 км ясно +27.3 +5.8 25 +26 +35 жарко 1005.5 923.1 +17.5
06 17.06 ЮВ 2 50 км 1/1 1000 м
[Sc]
+30.6 +3.2 17 +28 +45 жарко 1004.4 922.9
09 17.06 ЮВ 2 50 км 3/3 1000 м
[Sc]
+32.6 +4.8 17 +30 +43 жарко 1002.7 921.9
12 17.06 ЮВ 1 50 км 3/3 1000 м
[Sc]
+33.2 +5.0 17 +31 +36 жарко 1001.9 921.3
15 17.06 ЮВ 1 50 км ясно +26.8 +7.8 30 +27 +27 жарко 1003.8 921.4 +34.0

 

Местоположение метеостанции Ганжина (Таджикистан): широта 37.95 долгота 68.57 высота над уровнем моря 752 м.

В архиве по умолчанию представлена погода в Ганжине за последнюю неделю. Архивные данные за месяц целиком и за предыдущие месяцы, начиная с января 2011 года, Вы можете получить, выбрав интересующий диапазон дат из раскрывающегося списка и нажав кнопку "Ввод!".


*Определитесь, кто Вы:
робот инопланетянин человек

Внимание! Время в таблицах - всемирное. Для получения местного времени необходимо прибавить поправку, которая равна 5 ч.

Смотрите также архив погоды в соседних городах и на ближайших метеорологических станциях:

Погода в Исанбай (Таджикистан) (7 км)
Погода в Курган-Тюбе (Таджикистан) (23 км)
Погода в Шурчи (Сухрандарьинская область, Узбекистан) (68 км)
Погода в Дангаре (Таджикистан) (68 км)
Погода в Денау (Сухрандарьинская область, Узбекистан) (69 км)
Погода в Душанбе (Таджикистан) (69 км)
Погода в Пархаре (Таджикистан) (88 км)
Погода в Пьяндже (Таджикистан) (92 км)
Погода в Санглоке (Таджикистан) (94 км)
Погода в Кулябе (Таджикистан) (106 км)

Пояснения к столбцам:

Ветер - указаны скорость ветра в м/с - средняя за 10 мин, порывы в срок и между сроками (в фигурных скобках) и направление, откуда дует ветер: С - северный, СВ - северо-восточный, В - восточный, ЮВ - юго-восточный, Ю - южный, ЮЗ - юго-западный, З - западный, СЗ - северо-западный.
Видимость - горизонтальная дальность видимости в метрах или километрах. При видимости от 1 до 10 км при отсутствии осадков обычно наблюдается дымка, при ухудшении видимости до 1 км и менее - туман. В сухую погоду видимость может ухудшаться дымом, пылью или мглою.
Явления - указаны атмосферные явления, наблюдавшиеся в срок или в последний час перед сроком; фигурными скобками обозначены явления, наблюдавшиеся между сроками (за 1-3 часа до срока); квадратными скобками обозначены град или гололедные отложения с указанием их диаметра в мм.
Облачность - указаны через наклонную черту общая и нижняя облачность в баллах и высота нижней границы облаков в метрах; квадратными скобками обозначены формы облаков: Ci - перистые, Cs - перисто-слоистые, Cc - перисто-кучевые, Ac - высококучевые, As - высокослоистые, Sc - слоисто-кучевые, Ns - слоисто-дождевые, Cu - кучевые, Cb - кучево-дождевые. Подробнее классификацию облаков см. в Атласе облаков (PDF).
T - Температура воздуха - температура, измеренная на высоте 2 м над землей.
Td - Температура точки росы - температура, при понижении до которой содержащийся в воздухе водяной пар достигнет насыщения.
f - Относительная влажность воздуха - влажноcть воздуха, измеренная на высоте 2 м над землей.
Te - Эффективная температура - температура, которую ощущает одетый по сезону человек в тени. Характеристика душности погоды. При расчете учитывается влияние влажности воздуха и скорости ветра на теплоощущения человека.
Tes - Эффективная температура на солнце - температура, которую ощущает человек, с поправкой на солнечный нагрев. Характеристика знойности погоды. Зависит от высоты солнца над горизонтом, облачности и скорости ветра. Ночью, в пасмурную погоду, а также при ветре 12 м/с и более поправка равна нулю.
P - Атмосферное давление - приведенное к уровню моря атмосферное давление.
Po - Атмосферное давление - измеренное на уровне метеостанции атмосферное давление.
Tmin - Минимальная температура - минимум температуры воздуха на высоте 2 м над землей.
Tmax - Максимальная температура - максимум температуры воздуха на высоте 2 м над землей.
R - Количество осадков - Количество выпавших осадков за период времени, мм. При наведении курсора мыши на число - период времени, за который выпало указанное количество осадков.
R24 - Количество осадков - Количество выпавших осадков за 24 часа, мм.
S - Снежный покров - Высота снежного покрова, см. При наведении курсора мыши на число - состояние снежного покрова и степень покрытия местности в баллах.